Regional Weather Roundup
Issued by NWS

Home | Current Version | Previous Version | Text Only | Print | Product List | Glossary Off
Versions: 1 2 3 4 5 6 7 8 9 10 11 12 13 14 15 16 17 18 19 20 21 22 23 24 25 26 27 28 29 30 31 32 33 34 35 36 37 38 39 40 41 42 43 44 45 46 47 48 49 50

315
ASUS44 KMEG 291710
RWRTN
TENNESSEE HOURLY STATE WEATHER ROUNDUP
NATIONAL WEATHER SERVICE MEMPHIS TN
1200 PM CDT FRI JUL 29 2016

TNZ002-004-019-021-049-052-054-088>092-291800-
WEST TENNESSEE

CITY           SKY/WX    TMP DP  RH WIND       PRES   REMARKS
MEMPHIS INTL   CLOUDY    83  74  74 W8        29.99S
NWS MEMPHIS      N/A     83 N/A N/A MISG        N/A
JACKSON        CLOUDY    80  74  81 SW7       30.00S
DYERSBURG      CLOUDY   N/A N/A N/A MISG        N/A
UNION CITY     CLOUDY    81  79  94 SW6       29.97S
PARIS          CLOUDY    77  73  88 SW10      29.99S
LEXINGTON      CLOUDY    79  72  78 SW7       29.99F
$$

TNZ008-025-027-028-033-062-065-066-291800-
NORTH MIDDLE TENNESSEE

CITY           SKY/WX    TMP DP  RH WIND       PRES   REMARKS
NASHVILLE      PTSUNNY   85  72  65 SW8G17    29.98F HX  91
CLARKSVILLE    MOSUNNY   83  75  77 SW8       29.97F HX  90
SMYRNA         PTSUNNY   86  74  67 SW10      29.99F HX  94
COOKEVILLE     CLOUDY    81  75  83 W7        30.02S
CROSSVILLE     PTSUNNY   79  69  71 W10       30.06F
$$

TNZ061-075-076-078-094-096-097-291800-
SOUTH MIDDLE TENNESSEE

CITY           SKY/WX    TMP DP  RH WIND       PRES   REMARKS
FAYETTEVILLE   PTSUNNY   81  73  78 SW10      30.04F
TULLAHOMA      PTSUNNY   82  72  69 SW10      30.04F
WINCHESTER     PTSUNNY   81  73  78 SW8       30.04S
MCMINNVILLE    CLOUDY    79  75  89 SW10      30.03F
COLUMBIA       CLOUDY    81  81 100 SW8       30.00F HX  91
SHELBYVILLE    CLOUDY    82  75  78 SW7       30.03S
$$

TNZ017-018-042-046-047-291800-
NORTHEAST TENNESSEE

CITY           SKY/WX    TMP DP  RH WIND       PRES   REMARKS
TRI CITIES     PTSUNNY   82  67  60 W6        30.04S
ELIZABETHTON   DRIZZLE   79  70  73 W5        30.04S
$$

TNZ012-013-036-069-073-074-291800-
CENTRAL EAST TENNESSEE

CITY           SKY/WX    TMP DP  RH WIND       PRES   REMARKS
KNOXVILLE      PTSUNNY   85  70  60 SW12      30.01S
OAK RIDGE      MOSUNNY   86  69  56 VRB7      30.01F HX  90
GATLINBURG     PTSUNNY   84  68  58 W6        30.01F
MORRISTOWN     PTSUNNY   82  72  69 W8        30.02S
$$

TNZ083-085-099-291800-
SOUTHEAST TENNESSEE

CITY           SKY/WX    TMP DP  RH WIND       PRES   REMARKS
CHATTANOOGA    CLOUDY    86  69  56 SW9       30.01F HX  90
$$

SKY/WX REPORTED AS FAIR MEANS FEW OR NO CLOUDS BELOW
12 THOUSAND FEET.





USA.gov is the U.S. government's official web portal to all federal, state and local government web resources and services.